Station 41025 (LLNR 637) - Diamond Shoals, NC Image indicating link to RSS feed of recent meteorological observations for station 41025


Conditions at 41025 as of
(8:30 pm EDT on 04/15/2024)
0030 GMT on 04/16/2024:
     

Click on the graph icon in the table below to see a time series plot of the last five days of that observation.

5-day plot - Wind Direction Wind Direction (WDIR): SW ( 220 deg true )
5-day plot - Wind Speed Wind Speed (WSPD): 15.5 kts
5-day plot - Wind Gust Wind Gust (GST): 19.4 kts
5-day plot - Atmospheric Pressure Atmospheric Pressure (PRES):29.96 in
5-day plot - Water Temperature Water Temperature (WTMP): 65.5 °F
5-day plot - Wind Speed at 10 Meters Wind Speed at 10 meters (WSPD10M): 17.5 kts
5-day plot - Wind Speed at 20 Meters Wind Speed at 20 meters (WSPD20M): 19.4 kts
5-day plot -  Wind Speed, Wind Gust and Atmospheric Pressure Combined plot of Wind Speed, Gust, and Air Pressure
Supplemental Measurements
Highest 1-minute Wind Speed
Time (EDT)5-day plot - 1-Minute Wind Speed WSPD 5-day plot - 1-Minute Wind Direction WDIR
8:26 pm 17.5 kts-
Previous observations
TIME
(EDT)
5-day plot - Wind Direction
WDIR
 
5-day plot - Wind Speed
WSPD
kts
5-day plot - Wind Gust
GST
kts
5-day plot - Wave Height
WVHT
ft
5-day plot - Dominant Wave Period
DPD
sec
5-day plot - Average Wave Period
APD
sec
5-day plot - Mean Wave Direction
MWD
 
5-day plot - Atmospheric Pressure
PRES
in
5-day plot - Pressure Tendency
PTDY
in
5-day plot - Air Temperature
ATMP
°F
5-day plot - Water Temperature
WTMP
°F
5-day plot - Dew Point
DEWP
°F
5-day plot - Salinity
SAL
psu
5-day plot - Visibility
VIS
nmi
5-day plot - Tide (above MLLW)
TIDE
ft
2024-04-15 08:20 pm SW 15.5 19.4 5.2 64.6 S29.96-- 65.5----
2024-04-15 08:10 pm SW 15.5 19.4 5.2-4.6 S29.96-- 65.5----
2024-04-15 08:00 pm SW 17.5 21.4----29.95+0.00- 65.5----
2024-04-15 07:50 pm SW 17.5 23.3 4.9 74.7 S29.95-- 65.5----
2024-04-15 07:40 pm SW 19.4 23.3----29.95-- 65.5----
2024-04-15 07:20 pm SW 17.5 23.3 5.2 64.7 S29.94-- 65.5----
2024-04-15 07:10 pm SW 17.5 19.4 5.2-4.7 S29.94-- 65.5----
2024-04-15 07:00 pm SW 15.5 19.4----29.94-0.01- 65.5----
2024-04-15 06:50 pm SW 17.5 21.4 5.2 74.6 S29.94-- 65.5----
2024-04-15 06:40 pm SW 15.5 19.4----29.94-- 65.5----
2024-04-15 06:30 pm SW 15.5 19.4----29.95-- 65.5----
2024-04-15 06:20 pm SW 15.5 17.5 5.6 74.8 S29.95-- 65.5----
2024-04-15 06:10 pm SW 15.5 19.4 5.6-4.8 S29.95-- 65.5----
2024-04-15 06:00 pm SW 15.5 19.4----29.95-0.01- 65.5----
2024-04-15 05:50 pm SW 15.5 19.4 5.2 74.8 S29.96-- 65.7----
2024-04-15 05:40 pm SW 15.5 19.4----29.96-- 65.7----
2024-04-15 05:30 pm SW 15.5 19.4----29.96-- 65.7----
2024-04-15 05:20 pm SW 15.5 17.5 5.2 74.8 S29.96-- 65.7----
2024-04-15 05:10 pm SW 15.5 19.4 5.2-4.8 S29.96-- 65.7----
2024-04-15 05:00 pm SW 17.5 21.4----29.96-0.02- 65.8----
2024-04-15 04:50 pm SW 17.5 21.4 5.2 74.8 S29.96-- 65.8----
2024-04-15 04:40 pm SW 17.5 21.4 5.2-4.8 S29.96-- 65.8----
2024-04-15 04:30 pm SW 17.5 21.4----29.96-- 66.0----
2024-04-15 04:20 pm SW 17.5 21.4 5.2 74.9 S29.96-- 66.0----
2024-04-15 04:10 pm SW 15.5 21.4 5.2-4.9 S29.95-- 66.2----
2024-04-15 04:00 pm SW 17.5 21.4----29.96-0.02- 66.2----
2024-04-15 03:50 pm SW 17.5 19.4 5.6 74.8SSW29.96-- 66.2----
2024-04-15 03:40 pm SW 17.5 19.4----29.96-- 66.2----
2024-04-15 03:30 pm SW 15.5 19.4----29.96-- 66.2----
2024-04-15 03:20 pm SW 17.5 21.4 5.6 64.8SSW29.96-- 66.2----
2024-04-15 03:10 pm SW 17.5 21.4 5.6-4.8SSW29.96-- 66.2----
2024-04-15 03:00 pm SW 17.5 21.4----29.96-0.03- 66.2----
2024-04-15 02:50 pm SW 17.5 21.4 5.9 74.9SSW29.97-- 66.2----
2024-04-15 02:40 pm SW 17.5 21.4 5.9-4.9SSW29.97-- 66.2----
2024-04-15 02:30 pm SW 15.5 19.4----29.97-- 66.2----
2024-04-15 02:20 pm SW 17.5 21.4 5.6 75.0 S29.97-- 66.2----
2024-04-15 02:10 pm SW 17.5 19.4 5.6-5.0 S29.97-- 66.2----
2024-04-15 02:00 pm SW 15.5 19.4----29.97-0.03- 66.2----
2024-04-15 01:50 pm SW 15.5 19.4 5.6 75.1SSW29.97-- 66.2----
2024-04-15 01:40 pm SW 15.5 19.4----29.98-- 66.2----
2024-04-15 01:30 pm SW 15.5 19.4----29.98-- 66.2----
2024-04-15 01:20 pm SW 15.5 19.4 5.9 75.1SSW29.98-- 66.2----
2024-04-15 01:10 pm SW 15.5 19.4 5.9-5.1SSW29.98-- 66.2----
2024-04-15 01:00 pm SW 15.5 17.5----29.98-0.02- 66.2----
2024-04-15 12:50 pm SW 15.5 17.5 5.9-5.1SSW29.98-------
2024-04-15 12:40 pm--- 5.9 7----- 66.2----
2024-04-15 12:30 pm SW 15.5 19.4----29.99-- 65.3----
2024-04-15 12:20 pm SW 15.5 19.4 5.9 65.0SSW29.99-- 65.1----
2024-04-15 12:10 pm SW 15.5 17.5 5.9-5.0SSW29.99-- 64.9----
2024-04-15 12:00 pm SW 15.5 17.5----29.99+0.00- 64.9----
2024-04-15 11:50 am SW 15.5 19.4 6.2 75.1SSW30.00-- 64.8----
2024-04-15 11:40 am SW 17.5 19.4 6.2-5.1SSW30.00-- 64.6----
2024-04-15 11:30 am SW 15.5 19.4----30.00-- 64.4----
2024-04-15 11:20 am SW 15.5 19.4 6.9 75.2SSW30.00-- 64.4----
2024-04-15 11:10 am SW 15.5 21.4 6.9-5.2SSW30.00-- 64.2----
2024-04-15 11:00 am SW 17.5 21.4----30.01+0.02- 64.2----
2024-04-15 10:50 am SW 15.5 21.4 5.9 74.9SSW30.01-- 64.2----
2024-04-15 10:40 am SW 15.5 19.4 5.9-4.9SSW30.01-- 64.2----
2024-04-15 10:30 am SW 15.5 19.4----30.01-- 64.2----
2024-04-15 10:20 am SW 17.5 19.4 6.2 75.0SSW30.00-- 64.2----
2024-04-15 10:10 am SW 17.5 21.4 6.2-5.0SSW30.00-- 64.2----
2024-04-15 10:00 am SW 17.5 21.4----30.00+0.03- 64.2----
2024-04-15 09:50 am SW 17.5 23.3 6.2 65.1SSW30.00-- 64.2----
2024-04-15 09:40 am SW 17.5 23.3----30.00-- 64.2----
2024-04-15 09:30 am SW 17.5 23.3----29.99-- 64.2----
2024-04-15 09:20 am SW 17.5 21.4 6.2 65.1SSW29.99-- 64.2----
2024-04-15 09:10 am SW 17.5 21.4----29.99-- 64.0----
2024-04-15 09:00 am SW 17.5 21.4----29.99+0.03- 64.2----
2024-04-15 08:50 am SW 17.5 23.3 6.2 64.9SSW29.99-- 64.2----
2024-04-15 08:40 am SW 17.5 21.4 6.2-4.9SSW29.99-- 64.2----
2024-04-15 08:30 am SW 17.5 21.4----29.99-- 64.2----
2024-04-15 08:20 am SW 17.5 21.4 6.2 65.0 S29.99-- 64.2----
2024-04-15 08:10 am SW 17.5 21.4 6.2-5.0 S29.99-- 64.2----
2024-04-15 08:00 am SW 17.5 21.4----29.99+0.04- 64.2----
2024-04-15 07:50 am SW 17.5 21.4 6.2 74.9SSW29.99-- 64.2----
2024-04-15 07:40 am SW 17.5 21.4----29.99-- 64.2----
2024-04-15 07:30 am SW 19.4 23.3----29.99-- 64.2----
2024-04-15 07:20 am SW 19.4 23.3 5.6 64.7SSW29.98-- 64.2----
2024-04-15 07:10 am SW 19.4 23.3 5.6-4.7SSW29.98-- 64.2----
2024-04-15 07:00 am SW 19.4 23.3----29.98+0.02- 64.4----
2024-04-15 06:50 am SW 17.5 23.3 5.6 64.8SSW29.97-- 64.4----
2024-04-15 06:40 am SW 17.5 21.4 5.6-4.8SSW29.97-- 64.4----
2024-04-15 06:30 am SW 17.5 21.4----29.97-- 64.4----
2024-04-15 06:20 am SW 17.5 21.4 5.9 64.9SSW29.97-- 64.4----
2024-04-15 06:10 am SW 17.5 23.3 5.9-4.9SSW29.96-- 64.4----
2024-04-15 06:00 am SW 17.5 21.4----29.96+0.00- 64.4----
2024-04-15 05:50 am SW 17.5 21.4 5.9 64.9SSW29.96-- 64.4----
2024-04-15 05:40 am SW 17.5 21.4----29.96-- 64.4----
2024-04-15 05:30 am SW 17.5 21.4----29.96-- 64.4----
2024-04-15 05:20 am SW 17.5 23.3 5.9 64.9SSW29.96-- 64.4----
2024-04-15 05:10 am SW 19.4 23.3 5.9-4.9SSW29.95-- 64.4----
2024-04-15 05:00 am SW 17.5 23.3----29.95-0.03- 64.4----
2024-04-15 04:50 am SW 19.4 23.3 5.9 64.8SSW29.96-- 64.4----
2024-04-15 04:40 am SW 19.4 23.3 5.9-4.8SSW29.95-- 64.4----
2024-04-15 04:30 am SW 17.5 23.3----29.96-- 64.4----
2024-04-15 04:20 am SW 17.5 21.4 5.6 64.9SSW29.96-- 64.4----
2024-04-15 04:10 am SW 17.5 21.4 5.6-4.9SSW29.96-- 64.6----
2024-04-15 04:00 am SW 17.5 19.4----29.96-0.04- 64.6----
2024-04-15 03:50 am SW 17.5 21.4 5.6 64.8SSW29.96-- 64.6----
2024-04-15 03:40 am SW 17.5 23.3----29.96-- 64.6----
2024-04-15 03:30 am SW 17.5 21.4----29.96-- 64.6----
2024-04-15 03:20 am SW 17.5 19.4 5.6 54.7SSW29.96-- 64.6----
2024-04-15 03:10 am SW 17.5 21.4 5.6-4.7SSW29.96-- 64.6----
2024-04-15 03:00 am SW 17.5 21.4----29.96-0.04- 64.6----
2024-04-15 02:50 am SW 17.5 21.4 4.9 64.5SSW29.96-- 64.8----
2024-04-15 02:40 am SW 17.5 21.4----29.96-- 64.8----
2024-04-15 02:30 am SW 17.5 21.4----29.97-- 64.8----
2024-04-15 02:20 am SW 17.5 19.4 5.2 64.5SSW29.97-- 64.8----
2024-04-15 02:10 am SW 17.5 19.4 5.2-4.5SSW29.98-- 64.9----
2024-04-15 02:00 am SW 15.5 19.4----29.98-0.01- 64.9----
2024-04-15 01:50 am SW 15.5 19.4 4.6-4.3SSW29.98-------
2024-04-15 01:40 am SW 15.5 19.4----29.98-- 65.1----
2024-04-15 01:30 am SW 15.5 19.4----29.99-- 65.1----
2024-04-15 01:20 am SW 15.5 19.4 4.6 54.3SSW29.99-- 65.1----
2024-04-15 01:10 am SW 17.5 19.4----29.99-- 65.1----
2024-04-15 01:00 am SW 17.5 19.4----29.99+0.00- 65.1----
2024-04-15 12:50 am SW 17.5 21.4 4.6 54.3SSW30.00-- 65.1----
2024-04-15 12:40 am SW 17.5 21.4----29.99-- 65.1----
2024-04-15 12:30 am SW 15.5 19.4----29.99-- 65.1----
2024-04-15 12:20 am SW 15.5 19.4 4.9 54.3SSW30.00-- 65.1----
2024-04-15 12:10 am SW 15.5 19.4----30.00-- 64.9----
2024-04-15 12:00 am SW 17.5 19.4----30.00-0.01- 64.9----
2024-04-14 11:50 pm SW 17.5 19.4 4.9 54.3SSW29.99-- 64.9----
2024-04-14 11:40 pm SW 15.5 19.4 4.9-4.3SSW30.00-- 65.1----
2024-04-14 11:30 pm SW 15.5 21.4----30.00-- 65.1----
2024-04-14 11:20 pm SW 17.5 21.4 4.3 54.2SSW30.00-- 65.1----
2024-04-14 11:10 pm SW 15.5 21.4 4.3-4.2SSW29.99-- 65.1----
2024-04-14 11:00 pm SW 15.5 19.4----30.00+0.00- 65.1----
2024-04-14 10:50 pm SW 15.5 19.4 4.3 54.1SSW30.00-- 65.1----
2024-04-14 10:40 pm SW 15.5 19.4----29.99-- 65.1----
2024-04-14 10:30 pm SW 15.5 19.4----30.00-- 65.1----
2024-04-14 10:20 pm SW 15.5 17.5 4.3 44.1SSW30.00-------
2024-04-14 10:10 pm SW 15.5 17.5 4.3-4.1SSW30.00-- 65.1----
2024-04-14 10:00 pm SW 15.5 19.4----30.00-0.01- 65.1----
2024-04-14 09:50 pm SW 15.5 17.5 3.6 44.0SSW30.00-- 65.1----
2024-04-14 09:40 pm SW 15.5 19.4 3.6-4.0SSW30.00-- 65.1----
2024-04-14 09:30 pm SW 15.5 17.5----30.00-- 65.1----
2024-04-14 09:20 pm SW 15.5 17.5 3.3 44.0SSW30.00-- 65.1----
2024-04-14 09:10 pm SW 15.5 17.5 3.3-4.0SSW30.00-- 65.1----
2024-04-14 09:00 pm SW 13.6 17.5----30.01-0.01- 65.1----
2024-04-14 08:50 pm SW 13.6 17.5 3.3 44.1SSW30.01-- 65.1----
2024-04-14 08:40 pm SW 13.6 17.5----30.01-- 65.3----
2024-04-14 08:30 pm SW 13.6 17.5----30.00-- 65.3----
2024-04-14 08:20 pm SW 13.6 17.5 3.0 44.1SSW30.00-- 65.5----
2024-04-14 08:10 pm SW 13.6 15.5 3.0-4.1SSW30.00-- 65.5----
2024-04-14 08:00 pm SW 13.6 17.5----30.00-0.03- 65.7----
2024-04-14 07:50 pmSSW 13.6 15.5 3.0 94.0ENE30.00-- 65.7----

Detailed Wave Summary
for 41025 as of
(8:10 pm EDT on 04/15/2024)
0010 GMT on 04/16/2024:

These wave data are displayed in rounded times.

     

Click on the graph icon in the table below to see a time series plot of the last five days of that observation.

5-day plot - Significant Wave Height Significant Wave Height (WVHT): 5.2 ft
5-day plot - Wave Steepness Wave Steepness (STEEPNESS): STEEP
5-day plot - Average Wave Period Average Wave Period (APD): 4.6 sec
Previous observations
TIME
(EDT)
5-day plot - Wave Height
WVHT
ft
5-day plot - Swell Height
SwH
ft
5-day plot - Swell Period
SwP
sec
5-day plot - Swell Direction
SwD
 
5-day plot - Wind Wave Height
WWH
ft
5-day plot - Wind Wave Period
WWP
sec
5-day plot - Wind Wave Direction
WWD
 
5-day plot - Wave Steepness
STEEPNESS
 
5-day plot - Average Wave Period
APD
sec
2024-04-15 07:40 pm 4.9------ STEEP 4.7
2024-04-15 07:10 pm 5.2------ STEEP 4.7
2024-04-15 06:40 pm 5.2------ STEEP 4.6
2024-04-15 06:10 pm 5.6------ STEEP 4.8
2024-04-15 05:40 pm 5.2------ STEEP 4.8
2024-04-15 05:10 pm 5.2------ STEEP 4.8
2024-04-15 04:40 pm 5.2------ STEEP 4.8
2024-04-15 04:10 pm 5.2------ STEEP 4.9
2024-04-15 03:40 pm 5.6------ STEEP 4.8
2024-04-15 03:10 pm 5.6------VERY_STEEP 4.8
2024-04-15 02:40 pm 5.9------ STEEP 4.9
2024-04-15 02:10 pm 5.6------ STEEP 5.0
2024-04-15 01:40 pm 5.6------ STEEP 5.1
2024-04-15 01:10 pm 5.9------ STEEP 5.1
2024-04-15 12:40 pm 5.9------ STEEP 5.1
2024-04-15 12:10 pm 5.9------VERY_STEEP 5.0
2024-04-15 11:40 am 6.2------ STEEP 5.1
2024-04-15 11:10 am 6.9------ STEEP 5.2
2024-04-15 10:40 am 5.9------ STEEP 4.9
2024-04-15 10:10 am 6.2------ STEEP 5.0
2024-04-15 09:40 am 6.2------VERY_STEEP 5.1
2024-04-15 09:10 am 6.2------VERY_STEEP 5.1
2024-04-15 08:40 am 6.2------VERY_STEEP 4.9
2024-04-15 08:10 am 6.2------VERY_STEEP 5.0
2024-04-15 07:40 am 6.2------ STEEP 4.9
2024-04-15 07:10 am 5.6------VERY_STEEP 4.7
2024-04-15 06:40 am 5.6------VERY_STEEP 4.8
2024-04-15 06:10 am 5.9------VERY_STEEP 4.9
2024-04-15 05:40 am 5.9------VERY_STEEP 4.9
2024-04-15 05:10 am 5.9------VERY_STEEP 4.9
2024-04-15 04:40 am 5.9------VERY_STEEP 4.8
2024-04-15 04:10 am 5.6------VERY_STEEP 4.9
2024-04-15 03:40 am 5.6------VERY_STEEP 4.8
2024-04-15 03:10 am 5.6------VERY_STEEP 4.7
2024-04-15 02:40 am 4.9------VERY_STEEP 4.5
2024-04-15 02:10 am 5.2------VERY_STEEP 4.5
2024-04-15 01:40 am 4.6------VERY_STEEP 4.3
2024-04-15 01:10 am 4.6------VERY_STEEP 4.3
2024-04-15 12:40 am 4.6------VERY_STEEP 4.3
2024-04-15 12:10 am 4.9------VERY_STEEP 4.3
2024-04-14 11:40 pm 4.9------VERY_STEEP 4.3
2024-04-14 11:10 pm 4.3------VERY_STEEP 4.2
2024-04-14 10:40 pm 4.3------VERY_STEEP 4.1
2024-04-14 10:10 pm 4.3------VERY_STEEP 4.1
2024-04-14 09:40 pm 3.6------VERY_STEEP 4.0
2024-04-14 09:10 pm 3.3------VERY_STEEP 4.0
2024-04-14 08:40 pm 3.3------VERY_STEEP 4.1
2024-04-14 08:10 pm 3.0------VERY_STEEP 4.1

Plot of wave energy versus frequency (and period)